Location: Unspecified
(32.7310°N, 0.0000°E)
Time: 04:31:56
(UTC+00:00)

Envisat - Visible Passes

Search period start: 16 October 2019 00:00
Search period end: 26 October 2019 00:00
Orbit: 764 x 766 km, 98.1° (Epoch: 15 October)

Date Brightness Start Highest point End Pass type
(mag) Time Alt. Az. Time Alt. Az. Time Alt. Az.
16 Oct 6.8 05:31:29 10° E 05:32:02 10° E 05:32:35 10° E visible
16 Oct 3.1 18:16:11 10° S 18:21:15 83° WSW 18:26:21 10° NNW visible
17 Oct 5.7 19:20:19 10° SW 19:23:43 18° W 19:27:08 10° NW visible
18 Oct 4.2 18:41:58 10° S 18:46:47 43° W 18:51:37 10° NNW visible
19 Oct 2.9 18:04:57 10° SSE 18:10:00 77° ENE 18:15:05 10° N visible
20 Oct 5.4 19:08:23 10° SSW 19:12:23 23° W 19:16:25 10° NW visible
21 Oct 3.7 18:30:31 10° S 18:35:29 57° W 18:40:30 10° NNW visible
22 Oct 3.0 17:53:48 10° SSE 17:58:46 59° ENE 18:03:45 10° N visible
22 Oct 6.2 19:36:06 10° WSW 19:38:05 12° W 19:40:05 10° WNW visible
23 Oct 4.9 18:56:39 10° SSW 19:01:04 30° W 19:05:31 10° NW visible
24 Oct 6.6 05:33:22 10° ENE 05:35:03 12° E 05:36:44 10° ESE visible
24 Oct 3.2 18:19:10 10° S 18:24:13 75° WSW 18:29:19 10° NNW visible
25 Oct 3.3 17:42:45 10° SE 17:47:34 45° ENE 17:52:22 10° N visible
25 Oct 5.9 19:23:38 10° SW 19:26:44 16° W 19:29:50 10° NW visible
